RH
11 8 9 10 12 12 12 14 13 13 14 14 17 17 18 18 17 18 18 19 21 21 21 21 21 19 17 17 18 18 19 20 19 19 22 26 25 23 22 18 17 16 17 16 12 15 19 18 21 20 14 15 23 25 19 32 44 33 28 27 33 41 38 43 46 44 38 37 49 53 58 59 57 57 44 47 54 49 53 56 56 52 43 40 35 30 30 36
8 8 11 13 14 14 14 14 14 15 16 17 18 17 18 17 18 19 20 22 22 21 21 22 22 19 18 17 18 19 19 19 18 20 23 24 24 23 22 17 16 17 17 16 14 22 26 28 31 26 21 19 24 24 23 30 27 37 45 32 44 52 45 49 44 43 41 33 44 54 61 63 56 50 40 40 51 55 53 53 55 53 47 41 38 36 35 40
8 11 14 15 15 15 15 15 16 18 18 18 17 17 18 18 20 21 22 22 21 21 21 22 22 18 19 17 18 19 17 21 22 21 22 23 23 22 20 17 17 18 17 16 17 22 26 31 29 25 23 21 28 28 26 29 26 44 45 34 56 61 51 52 42 40 42 38 40 47 60 64 59 51 41 45 51 54 53 48 49 52 49 43 41 42 42 45
11 14 15 16 16 15 16 18 18 18 18 17 17 18 18 20 21 21 23 22 20 21 20 22 21 19 19 16 19 18 16 27 30 22 21 23 22 21 18 16 18 18 18 17 17 20 22 24 23 26 21 23 45 38 25 30 28 35 38 40 55 52 44 40 38 44 48 47 38 43 55 52 56 55 44 47 49 47 46 42 45 46 43 41 41 47 51 50
14 15 17 16 16 17 18 19 18 17 17 17 17 18 19 20 20 21 22 20 20 20 20 21 20 22 21 18 20 18 23 31 27 21 21 22 21 21 17 17 20 19 18 17 19 19 16 18 21 31 27 24 44 35 22 33 28 28 41 49 51 43 33 31 42 49 47 47 42 45 46 40 48 51 47 50 50 45 35 37 48 44 38 38 39 46 55 55
15 16 17 17 18 19 19 18 17 17 17 17 17 19 20 20 20 20 20 20 20 20 19 19 19 21 22 26 22 18 27 27 20 20 22 21 20 21 18 17 20 18 18 17 17 18 18 22 19 26 32 27 33 28 29 45 36 27 43 53 52 45 34 34 44 48 48 42 40 44 42 45 48 47 55 55 48 43 32 36 52 53 46 41 40 44 51 56
16 17 17 19 19 18 18 17 17 17 16 17 18 19 19 19 20 20 19 19 19 18 18 20 21 20 22 24 20 28 35 23 19 22 21 21 20 20 19 18 19 16 18 17 17 22 24 25 20 23 30 29 36 36 37 52 46 31 43 56 51 44 37 37 40 45 52 41 40 49 44 45 46 47 55 51 42 40 37 40 50 56 56 54 52 51 50 52
16 18 19 19 19 17 17 16 16 16 16 17 18 19 18 19 21 19 19 18 18 18 18 22 22 21 21 19 29 51 45 21 20 22 19 22 19 20 20 19 20 17 17 19 21 24 24 25 25 27 28 29 36 39 38 45 50 39 43 57 53 46 43 44 48 49 51 47 46 49 44 41 43 46 45 39 33 31 34 38 43 48 54 59 61 59 55 52
17 18 19 18 18 16 16 16 16 16 16 17 18 18 18 19 20 18 18 17 17 18 19 23 22 21 21 25 44 52 33 19 21 21 20 21 20 20 20 20 20 19 18 21 23 21 23 27 28 27 26 32 35 40 44 37 44 48 47 56 52 47 50 51 52 50 49 50 46 41 41 43 44 43 37 33 27 28 33 33 37 42 44 49 52 57 60 55
18 18 18 17 17 16 16 16 16 17 17 17 18 18 18 19 19 17 18 17 17 18 21 23 23 22 19 30 48 36 19 22 21 20 21 20 20 19 19 20 19 20 20 22 24 23 26 27 31 31 27 33 34 40 48 34 37 54 56 57 55 52 57 59 51 50 50 45 45 40 37 41 43 39 34 30 28 34 36 31 33 37 37 38 41 48 54 59
18 18 17 16 16 16 15 16 16 17 17 17 17 17 18 18 18 19 18 18 18 18 21 23 27 24 17 30 44 30 19 22 20 21 22 19 20 19 19 20 18 19 20 24 25 26 27 24 31 32 23 27 33 41 48 42 42 52 53 50 57 58 52 51 44 44 46 36 42 44 37 39 42 42 36 29 28 34 35 31 32 33 34 34 35 38 42 52
18 17 16 16 16 15 15 16 16 17 17 17 17 17 18 18 18 19 19 20 19 20 21 24 29 26 24 33 35 25 21 21 20 20 19 19 20 19 20 19 19 19 19 25 26 26 26 27 33 34 28 30 37 40 41 49 50 51 54 47 53 54 41 39 38 43 43 33 42 45 36 35 40 43 35 28 28 33 34 33 32 31 32 33 33 35 35 40
18 16 16 16 15 15 16 17 16 16 17 17 17 18 19 18 19 19 19 20 19 21 21 24 30 28 30 36 26 19 21 19 19 19 17 18 17 18 20 19 19 19 19 22 23 25 26 25 30 36 42 44 40 36 42 60 55 43 53 57 58 51 37 33 37 46 39 34 47 44 39 36 33 35 28 30 33 32 35 32 31 33 32 34 35 35 35 35
17 15 16 16 14 15 16 17 17 17 17 18 19 19 19 19 19 19 19 20 20 23 23 26 30 27 30 31 21 18 19 18 18 18 18 17 18 16 16 18 19 19 19 20 19 23 25 22 27 38 45 48 44 43 59 77 66 49 53 68 70 49 38 39 44 52 39 39 48 38 48 47 29 30 27 31 37 34 37 33 32 34 33 35 36 36 36 34
16 15 16 14 14 16 16 16 17 18 18 19 19 19 19 19 19 19 19 20 20 23 23 24 25 29 35 28 18 18 17 17 18 18 18 19 20 18 17 18 18 19 19 20 20 21 23 24 34 43 42 49 60 65 70 74 77 71 52 58 70 52 49 51 48 57 46 46 50 36 54 59 37 33 30 31 37 36 37 35 35 35 35 36 35 36 35 34
15 15 15 13 15 16 16 17 18 19 19 20 21 20 20 19 18 19 20 20 21 24 24 22 21 29 36 23 16 18 16 18 19 18 19 20 22 21 22 20 18 19 19 20 21 21 24 32 46 50 49 55 66 75 76 70 79 84 56 46 60 55 57 53 43 62 62 51 54 44 51 56 40 31 29 31 35 37 38 37 37 37 38 38 36 37 36 35
15 15 13 14 16 16 17 18 18 19 20 21 21 20 20 19 18 18 19 21 22 23 22 19 19 24 26 18 16 20 19 19 17 18 21 22 22 22 23 22 22 22 23 23 19 23 31 42 49 46 55 67 66 73 76 65 66 77 72 63 66 61 61 55 41 58 67 53 52 52 51 52 42 35 36 35 35 39 39 35 38 39 41 42 41 41 37 37
15 13 13 15 17 18 18 18 19 19 19 20 20 20 21 18 16 17 19 18 19 23 23 20 23 27 24 20 20 22 21 19 18 19 21 21 21 23 24 26 28 28 35 34 25 34 43 48 56 47 51 65 67 69 59 48 51 62 71 71 74 71 64 60 49 54 64 53 50 53 53 52 44 40 39 34 36 43 38 34 39 40 42 46 46 45 43 42
14 13 14 17 18 19 19 18 19 18 18 19 19 20 20 20 21 17 16 19 24 27 25 27 30 29 26 22 22 22 21 20 19 18 21 23 22 24 26 30 35 38 49 46 34 53 58 52 63 58 51 57 65 70 52 42 51 59 68 73 76 74 63 57 54 64 66 55 55 54 51 52 45 42 40 35 39 42 34 33 38 40 45 48 46 49 51 47
13 13 15 19 19 19 19 18 18 17 19 20 19 21 25 38 43 30 25 32 37 34 30 33 32 25 23 23 22 22 21 18 17 20 22 23 25 24 27 42 47 42 58 59 45 62 64 51 57 56 56 61 65 74 66 59 64 69 77 81 82 77 63 48 49 72 71 57 67 66 58 58 51 44 41 41 42 36 30 32 37 41 47 50 47 49 51 50
13 13 18 21 19 20 19 18 18 17 19 17 17 22 30 42 42 31 31 35 36 38 36 35 31 25 22 21 22 24 25 19 16 20 21 22 29 24 30 56 53 34 57 71 57 61 56 43 48 55 66 69 70 81 80 76 78 77 78 78 75 71 60 42 45 72 69 56 68 71 62 56 46 43 44 46 42 31 28 33 38 44 51 52 46 47 48 52
12 14 20 20 20 22 19 18 19 17 18 14 16 28 35 37 33 29 34 32 27 31 33 29 27 25 23 20 23 26 26 22 19 19 21 24 30 32 43 63 56 44 65 72 56 57 51 39 44 61 75 75 78 88 81 79 81 74 71 66 57 57 58 53 56 68 62 57 68 71 64 54 45 48 49 47 40 31 33 39 44 52 58 53 42 44 48 46
11 17 20 20 21 21 19 19 20 19 17 14 19 30 33 31 32 30 32 31 24 27 33 30 26 25 26 22 23 27 24 24 27 22 22 27 34 49 60 60 59 62 67 59 46 47 42 36 50 72 81 70 68 80 75 69 68 62 59 53 48 52 53 51 58 65 63 63 70 70 64 61 57 47 37 40 40 33 37 44 48 55 59 54 43 43 48 47
13 19 19 20 20 20 21 20 20 21 16 17 21 25 27 28 31 30 32 36 25 22 30 29 25 25 27 23 21 31 32 28 31 25 22 30 36 51 58 53 57 58 59 63 58 51 42 45 63 78 83 68 56 69 71 58 56 62 62 50 45 53 54 52 59 67 68 66 69 65 53 54 60 42 26 37 39 29 35 42 39 41 47 48 43 39 43 46
15 19 18 19 19 20 21 20 24 20 16 22 21 23 26 24 30 31 34 42 27 16 24 24 23 23 22 21 23 36 41 29 26 25 23 29 38 50 52 50 52 46 51 65 58 49 49 58 66 63 71 69 52 54 58 54 57 59 61 54 43 52 62 66 72 70 61 54 57 58 41 41 53 41 33 47 40 27 36 41 34 33 38 42 43 41 42 44
17 18 18 18 17 19 19 24 29 20 20 26 21 24 25 24 35 32 37 53 33 14 21 19 17 20 19 22 31 41 42 29 21 22 22 24 35 45 45 49 53 47 53 61 48 40 46 61 71 60 59 61 49 46 49 56 59 45 48 57 54 61 66 69 75 65 52 44 50 60 43 35 41 29 30 45 38 32 39 40 38 40 41 43 45 44 44 45
17 19 17 17 17 17 21 31 30 23 30 30 22 25 23 26 34 30 43 59 36 15 20 21 17 17 18 24 34 34 30 27 22 20 23 24 30 39 40 47 51 48 59 61 40 34 43 56 71 69 59 52 41 39 45 53 52 42 48 58 58 62 63 70 73 65 65 56 57 75 57 40 47 35 30 40 36 38 45 45 47 47 46 47 46 46 45 45
17 18 17 17 17 17 23 31 26 25 34 30 25 24 24 31 31 35 50 44 25 18 19 22 18 15 23 29 35 37 32 32 25 18 25 22 23 36 38 42 47 44 55 58 32 30 47 48 54 60 54 45 32 31 48 55 50 52 60 62 65 69 70 79 78 79 88 58 43 70 55 33 46 37 28 41 47 54 57 56 57 52 50 51 48 48 47 45
17 18 17 17 18 18 22 26 23 27 32 26 22 22 27 32 30 49 60 29 16 23 20 21 17 21 41 43 44 47 37 37 32 26 33 25 20 34 34 40 52 41 42 55 39 31 47 51 54 55 43 38 39 44 57 57 48 58 64 57 66 82 85 85 83 87 89 55 39 60 46 26 35 32 36 56 66 72 69 62 60 55 53 52 50 50 47 46
17 17 17 18 19 18 19 22 20 21 26 21 21 29 30 34 48 63 53 22 15 26 26 25 22 34 55 49 47 51 38 40 47 43 44 35 27 35 35 42 58 47 39 52 45 32 46 59 64 63 50 46 56 61 68 70 60 58 60 51 48 63 75 85 90 74 51 45 53 56 43 32 35 44 60 73 74 76 75 67 62 56 53 52 51 50 48 48
18 18 19 20 19 18 19 23 19 17 23 18 22 34 26 39 68 57 29 17 18 28 35 35 39 52 61 49 41 47 47 48 52 48 46 45 40 39 38 41 52 53 45 45 40 37 46 49 52 64 63 57 59 54 60 78 73 53 51 47 33 38 55 75 89 64 31 34 49 53 50 42 43 59 70 72 71 73 74 71 64 59 55 53 51 49 50 49
20 19 19 18 17 18 19 21 18 17 22 19 28 46 40 45 54 36 29 28 16 25 34 36 52 59 60 54 39 42 49 45 46 47 46 53 56 51 48 49 45 36 34 38 39 42 43 36 37 51 56 55 51 39 41 61 61 47 49 51 47 51 54 55 59 53 41 34 33 44 50 41 47 68 70 66 67 67 68 68 63 59 54 51 50 48 49 49
19 18 17 17 17 19 21 23 21 17 21 21 32 53 56 47 31 23 42 38 17 32 42 43 62 64 54 47 37 43 46 34 37 43 44 52 59 56 56 62 52 29 25 35 39 40 39 37 36 35 40 49 46 34 34 43 45 48 53 53 56 56 53 51 50 48 46 37 27 33 44 43 48 64 67 61 57 55 58 60 57 54 51 49 49 46 46 47
17 17 15 16 17 19 24 28 26 23 23 23 34 47 39 28 24 25 41 46 41 52 55 52 58 53 43 35 35 47 42 31 36 43 48 50 51 55 54 57 57 45 40 40 38 37 31 30 31 25 27 39 41 37 38 39 45 58 62 57 57 52 48 56 58 50 45 46 39 31 44 57 51 55 64 54 47 46 46 48 47 44 43 45 45 43 43 44
15 15 15 16 18 21 29 33 30 27 23 21 37 51 35 23 31 34 38 53 58 57 56 55 51 44 42 43 47 43 30 31 40 42 48 49 48 53 53 53 56 55 50 40 35 38 33 28 27 29 36 39 40 47 50 43 44 58 62 56 58 59 53 57 62 54 46 58 63 50 56 66 54 54 61 47 41 44 39 40 41 36 36 38 39 40 40 42
14 14 15 17 20 22 29 34 30 25 22 20 30 44 43 35 33 36 43 49 52 55 54 45 42 44 43 47 56 46 29 34 40 34 38 46 48 49 51 56 58 55 52 44 39 39 36 29 25 32 44 42 46 56 55 44 37 44 50 45 51 60 55 57 68 64 56 63 69 61 56 55 51 58 59 47 44 44 40 40 39 35 35 36 37 39 39 41
13 15 15 17 20 20 24 28 25 20 19 25 33 41 48 45 37 45 59 58 54 62 57 36 26 34 40 43 50 47 37 35 35 28 28 36 38 40 50 54 52 55 56 51 48 43 39 40 38 36 34 40 58 63 56 57 52 45 44 46 54 62 61 67 74 70 70 70 60 51 49 50 59 66 63 55 51 48 44 41 39 37 36 37 39 39 41 42
16 18 18 16 18 19 20 20 19 19 20 36 57 58 50 48 50 59 67 63 60 61 54 36 22 27 39 39 39 49 48 35 32 33 31 30 26 34 49 48 48 66 69 54 48 49 49 50 51 45 34 39 52 44 38 54 59 50 48 50 51 54 60 69 69 65 68 67 59 53 50 58 79 85 74 64 56 52 49 43 43 43 40 43 44 42 45 45
19 25 25 17 15 18 18 12 14 23 27 43 67 63 48 52 64 74 74 65 61 59 50 39 29 31 39 38 40 57 57 40 36 37 27 22 23 32 46 45 45 68 81 63 52 58 57 47 44 44 41 38 35 27 25 35 50 58 60 57 53 52 53 57 61 67 68 63 66 65 52 61 88 87 71 63 57 54 54 49 49 48 46 48 48 47 50 49
23 29 22 11 14 18 14 10 21 38 42 52 65 57 48 55 65 82 91 78 61 50 43 43 40 35 40 43 43 53 59 53 50 43 30 28 30 31 46 55 50 60 76 69 60 61 57 46 40 40 43 35 25 26 23 20 34 48 49 53 59 59 60 60 60 65 66 63 71 76 65 65 80 71 56 59 60 56 56 52 51 50 49 50 48 49 51 50
34 36 19 11 15 15 13 21 45 68 67 63 64 56 55 58 56 72 96 93 72 54 49 52 49 41 43 46 43 50 60 62 59 49 39 39 30 21 45 73 70 66 67 62 64 62 53 54 54 51 47 33 22 24 23 22 31 40 49 62 65 60 61 69 68 62 65 67 70 82 82 73 70 58 50 57 58 53 51 48 51 52 49 48 47 47 49 49
44 39 19 12 11 10 18 38 68 89 83 67 57 56 67 71 55 54 74 78 69 62 58 54 52 53 52 47 50 59 61 59 57 44 34 39 29 20 53 89 92 83 66 57 66 65 59 66 67 60 48 32 29 36 42 46 42 46 65 73 70 72 74 82 87 78 76 73 67 80 89 80 70 58 51 56 53 47 46 45 47 48 44 46 46 46 47 46
40 25 11 12 12 10 18 38 61 75 72 61 57 60 67 68 56 49 55 59 56 54 52 49 48 49 48 50 57 58 49 43 42 36 36 48 45 46 77 99 97 89 71 57 60 57 59 66 61 54 45 31 30 36 48 57 47 54 78 77 76 86 85 87 90 83 87 87 82 91 94 79 69 60 51 52 49 45 44 43 45 45 43 45 45 46 47 44
35 19 17 15 6 8 23 38 48 58 61 54 53 62 59 54 58 55 47 53 62 57 48 47 47 42 47 60 63 56 45 30 28 37 42 45 53 75 101 101 91 84 69 60 59 50 52 59 55 53 48 37 32 30 37 44 41 58 81 78 76 81 80 84 86 86 93 84 78 97 99 72 55 54 52 49 48 45 41 40 43 45 46 44 44 46 45 44
38 27 31 25 10 20 43 53 55 61 67 59 50 55 50 42 57 69 57 56 70 68 51 44 50 53 58 63 62 63 56 31 25 43 50 46 57 85 104 98 92 92 85 86 86 66 55 57 53 52 51 47 48 45 40 37 42 65 81 73 72 78 78 79 82 92 96 79 75 96 96 66 45 51 58 53 49 46 40 40 42 43 45 44 44 47 46 46
36 30 38 36 26 38 54 66 74 67 61 65 56 45 41 33 42 67 69 56 60 66 58 51 54 55 56 60 62 68 65 46 40 53 60 59 60 75 96 101 97 98 95 99 98 82 74 72 62 56 51 47 48 43 37 44 60 79 85 76 73 76 73 71 79 86 84 83 86 79 70 63 55 59 65 56 47 45 43 45 45 43 45 45 45 47 48 49
44 35 38 31 25 44 55 62 80 68 52 63 56 37 44 45 36 46 52 46 56 66 60 58 60 51 50 60 58 55 59 53 45 47 53 63 67 68 83 96 99 99 97 99 96 82 76 74 68 65 56 46 47 42 41 63 80 80 81 78 74 75 73 74 82 78 71 88 91 62 54 70 71 66 64 53 45 47 47 48 47 46 47 46 46 49 50 50
45 37 40 34 26 41 45 43 63 68 62 73 66 46 56 62 48 43 43 44 56 57 41 42 55 59 64 68 53 44 53 50 41 44 51 62 70 66 66 81 96 100 97 99 97 80 68 70 75 78 69 58 56 51 53 75 81 72 73 74 69 74 77 78 79 69 66 86 87 63 60 76 75 65 57 47 45 48 49 48 47 48 48 48 49 51 51 51
36 37 43 48 45 49 52 53 61 60 60 77 71 52 58 60 47 47 53 50 48 46 36 28 38 58 76 80 63 46 48 45 41 52 60 59 63 64 61 64 76 87 87 88 90 78 64 73 87 86 74 63 56 54 63 79 80 72 72 69 65 69 71 73 73 65 65 77 74 65 71 76 68 57 48 44 45 47 49 49 48 49 49 50 52 52 52 52
32 36 39 51 62 67 74 78 72 57 60 75 64 50 61 61 45 48 57 47 32 36 44 38 40 62 81 87 77 54 43 42 41 50 59 60 64 69 62 56 65 80 84 83 85 71 52 62 81 83 73 59 47 50 65 79 81 78 73 67 66 68 68 72 74 70 73 79 70 69 81 78 60 47 45 47 48 50 52 52 50 50 51 52 53 53 54 54
25 29 29 40 51 59 69 74 73 66 62 66 58 51 54 52 49 52 52 51 46 39 41 46 53 72 82 80 74 61 54 56 54 56 59 59 65 68 60 62 75 83 89 95 95 82 69 69 76 82 82 64 45 49 63 74 82 86 83 77 73 73 74 75 72 68 74 81 79 81 90 80 56 46 51 52 52 55 55 53 53 52 51 52 54 54 55 54
24 22 28 41 43 53 75 75 68 62 50 50 63 65 54 55 72 66 37 47 77 70 56 57 60 67 70 55 45 48 55 60 64 72 74 73 81 84 77 80 84 82 92 104 100 93 92 86 81 88 88 68 52 58 63 65 77 88 87 81 75 73 73 70 66 64 66 71 80 89 87 70 52 52 59 59 57 58 55 53 53 53 52 53 54 54 54 53
Wind_Speed
3 2 2 2 1 2 1 2 2 3 4 5 7 7 9 10 11 12 12 12 12 12 12 12 12 11 8 5 5 4 5 6 10 18 15 11 16 17 17 16 14 15 16 15 15 13 12 13 15 17 12 4 3 2 3 3 2 3 3 1 3 3 4 5 6 5 3 4 5 4 3 6 6 4 2 2 2 5 5 6 6 6 9 11 13 10 6 4
1 1 1 1 1 2 1 2 3 4 5 6 7 8 10 10 11 11 11 12 11 10 11 13 14 9 5 4 3 3 5 6 10 14 14 14 18 17 15 14 14 15 16 15 15 13 8 8 10 11 7 3 3 2 2 2 1 3 3 1 4 5 5 6 6 5 3 5 6 5 4 6 7 4 1 3 6 4 6 9 4 8 13 13 17 13 6 10
1 1 2 2 1 1 1 2 3 4 6 7 8 9 9 9 10 11 11 10 8 9 11 15 15 10 4 3 3 3 5 6 7 9 13 16 17 16 14 13 12 13 13 13 13 10 6 5 6 5 5 2 2 2 2 2 1 1 3 2 6 6 5 5 6 6 6 4 5 7 3 3 6 3 1 3 8 6 8 10 6 9 14 14 14 10 9 14
3 3 3 2 1 1 1 2 4 5 6 7 8 8 8 8 9 11 11 8 7 8 11 14 16 14 10 6 5 4 5 7 4 7 13 15 16 15 13 12 11 10 11 11 10 8 5 3 2 3 4 2 4 2 1 1 1 1 3 4 6 4 3 6 6 6 5 3 4 6 4 5 6 3 2 2 6 9 10 11 11 13 14 14 12 8 10 12
4 3 2 1 1 0 2 3 4 6 7 7 7 7 7 7 8 10 10 6 6 8 11 14 15 14 13 9 7 6 5 5 4 9 12 14 14 14 11 10 9 9 10 10 8 5 4 4 5 5 4 1 4 3 1 1 2 1 3 5 5 3 3 7 5 5 4 2 3 5 5 7 4 2 4 5 6 9 10 8 11 14 13 13 10 7 8 9
4 2 2 1 1 1 2 4 5 6 7 7 6 6 6 7 8 9 7 5 6 9 12 14 13 11 9 8 7 7 5 3 6 9 11 12 14 14 11 9 9 10 10 9 7 5 4 5 6 4 3 2 2 1 3 3 3 2 4 3 3 4 4 5 2 3 4 2 4 4 4 4 4 5 4 7 12 14 15 8 6 10 11 10 8 5 7 10
3 2 2 1 0 2 3 4 5 6 6 5 5 5 6 9 10 6 4 4 6 9 12 13 13 10 7 4 4 6 7 1 7 9 11 12 13 13 11 10 11 12 9 8 9 5 4 6 5 2 3 3 2 1 3 4 3 1 4 5 4 4 5 5 3 4 4 5 7 3 4 5 6 7 2 6 15 17 17 12 8 10 10 7 6 6 9 11
3 3 2 0 1 2 4 4 5 6 5 4 4 5 8 10 7 4 4 4 6 9 11 11 12 12 7 2 2 5 4 3 8 10 11 12 12 12 11 11 14 14 8 7 8 2 2 4 2 2 2 2 2 1 2 5 4 2 4 5 3 3 6 7 6 7 6 7 6 2 6 10 9 4 3 12 18 15 12 10 10 10 9 7 7 10 10 11
4 2 1 1 2 3 4 5 6 5 4 3 4 6 8 11 9 7 6 5 7 9 9 10 11 11 8 3 5 5 3 6 9 11 11 11 12 11 10 12 15 15 9 6 6 3 2 1 1 2 1 1 2 1 3 4 3 3 4 4 4 6 7 6 7 7 5 5 2 3 9 10 7 2 5 15 16 11 8 7 7 6 9 9 9 10 9 11
3 1 0 2 3 4 5 6 6 4 4 3 4 6 8 10 10 9 7 5 7 7 7 9 10 10 9 5 6 5 5 7 9 11 11 11 11 10 9 11 14 14 9 6 6 5 2 2 2 3 4 2 1 1 1 1 1 4 4 5 6 8 7 4 6 6 4 4 2 4 11 9 4 1 4 11 8 5 9 10 9 6 9 10 9 9 9 10
2 0 1 3 3 4 5 5 4 4 4 4 5 6 6 7 7 8 8 6 5 5 7 9 9 9 10 8 7 4 6 8 10 12 12 11 11 10 7 9 12 11 8 6 6 5 2 2 3 3 2 0 0 1 1 2 1 2 3 6 7 7 5 3 6 6 5 3 2 6 11 7 2 1 7 11 6 5 10 13 12 9 9 10 10 9 8 8
1 1 2 2 3 4 5 4 4 4 4 5 5 6 5 4 4 4 6 6 4 5 7 9 10 5 6 8 5 2 7 9 11 11 13 14 13 9 6 8 11 9 6 4 4 5 5 1 4 5 0 1 1 1 1 2 0 1 4 5 9 9 5 4 6 6 4 3 4 4 7 5 1 6 10 11 10 9 10 12 13 11 9 9 9 8 7 8
0 1 2 2 4 4 4 3 4 4 5 6 5 4 4 3 2 2 2 3 3 5 7 9 9 5 4 4 1 4 8 8 10 10 15 20 14 8 5 7 10 7 3 3 3 4 7 3 6 5 2 3 1 1 1 2 2 2 5 4 6 9 5 4 5 6 4 3 6 4 4 7 5 9 10 7 7 11 13 13 12 10 9 8 8 7 8 8
0 1 1 3 4 4 3 4 5 5 6 6 6 6 6 4 4 4 3 2 3 5 8 7 7 4 3 1 3 6 9 7 9 12 17 24 18 7 4 6 7 4 2 2 2 4 6 4 7 6 2 3 1 2 4 6 4 3 5 3 4 5 6 7 6 6 6 2 5 6 1 8 11 15 11 2 4 9 12 14 12 11 9 8 7 7 8 9
0 1 2 3 3 3 4 5 6 6 6 6 7 7 7 6 4 4 3 1 3 5 7 6 5 3 3 1 2 8 11 9 13 17 19 24 19 8 7 9 5 2 3 3 1 4 6 5 7 4 2 2 4 5 5 5 5 4 4 4 3 2 5 10 6 3 4 4 5 6 2 7 10 15 13 5 5 7 9 12 11 11 11 9 8 7 8 9
1 1 2 3 3 3 4 5 6 7 7 6 6 5 6 5 3 3 3 1 2 6 7 4 5 3 4 2 6 9 9 10 17 19 19 21 13 6 12 12 3 2 6 5 2 3 7 8 5 3 2 5 6 5 4 4 5 3 3 3 5 3 5 9 4 2 4 4 5 3 3 6 8 12 15 13 10 9 8 10 10 10 10 9 8 7 7 8
1 1 2 2 3 4 4 5 6 6 7 8 9 9 9 8 3 1 1 1 1 5 6 5 5 3 4 4 6 7 9 12 18 21 23 18 7 7 13 8 4 7 7 8 6 2 5 6 2 1 4 5 3 3 5 5 5 4 3 2 4 3 3 6 5 4 6 3 4 3 3 7 11 12 16 16 11 9 10 10 10 8 8 8 7 8 8 7
2 1 2 3 3 4 5 5 6 6 8 9 9 10 12 13 10 6 3 2 4 5 5 7 7 3 2 7 6 8 15 15 15 22 25 16 6 8 11 5 4 8 6 6 6 4 4 4 3 3 4 4 5 6 5 1 3 3 3 2 4 3 3 5 6 4 7 5 4 4 4 10 13 12 13 13 9 8 10 9 9 8 8 9 7 7 7 7
2 2 3 4 4 5 5 5 6 6 5 3 4 4 5 9 12 15 16 11 3 3 2 4 5 4 2 7 7 14 17 11 10 20 26 19 8 5 8 6 4 6 5 3 5 6 4 4 5 4 4 5 4 2 3 4 5 5 5 3 4 6 5 7 7 4 7 7 7 5 5 9 13 14 12 12 9 7 9 9 8 8 8 8 8 7 7 8
3 4 5 5 5 6 4 4 4 3 2 3 3 3 3 3 6 8 12 12 5 3 3 1 1 2 2 5 9 18 14 6 4 19 30 24 9 3 6 7 6 7 6 1 3 4 4 6 5 2 4 6 5 4 5 3 3 4 2 3 5 5 7 8 6 5 5 5 6 3 4 9 12 14 11 9 9 7 8 10 9 8 8 7 7 7 7 6
4 5 6 6 6 6 4 2 3 5 6 6 6 5 2 1 4 2 2 4 2 3 4 0 1 0 4 5 10 15 7 3 4 18 33 26 7 4 7 6 7 7 4 2 2 4 5 7 2 6 7 7 5 4 4 3 2 1 1 4 5 3 8 9 4 3 6 5 5 2 6 12 13 11 9 6 7 8 7 8 9 9 8 6 6 7 7 5
4 5 5 6 7 5 3 3 5 7 9 12 13 9 4 4 4 3 1 3 2 5 5 3 2 2 5 4 9 12 3 5 9 16 30 26 10 6 4 5 7 3 5 4 2 5 6 3 6 7 4 3 3 2 1 2 1 1 1 2 5 3 6 9 3 2 6 3 5 6 6 12 13 10 9 5 4 6 6 5 7 8 8 8 8 7 7 7
5 5 6 7 7 5 4 4 5 6 10 13 12 9 5 3 3 2 2 4 1 4 3 4 4 5 6 3 12 14 6 7 6 12 25 20 8 5 4 6 6 3 6 5 3 3 3 2 4 3 3 4 4 5 6 4 3 1 1 2 5 5 3 5 3 6 9 2 4 8 6 8 8 7 7 4 3 5 7 7 6 5 6 9 9 9 9 10
5 6 8 8 6 5 4 4 4 7 11 13 12 9 6 4 2 3 2 2 1 2 1 1 2 3 4 4 14 11 3 4 1 9 21 14 5 3 4 3 4 4 5 4 6 6 1 4 3 5 6 5 3 5 7 6 6 3 4 2 5 6 2 5 6 9 9 2 2 6 7 5 4 6 6 5 5 7 7 9 11 10 10 11 12 13 14 15
6 8 11 9 6 5 4 4 5 7 7 8 9 7 6 5 2 3 3 3 3 3 3 2 2 6 5 7 15 7 2 4 2 5 15 11 4 2 3 1 4 5 4 1 5 4 1 4 3 5 6 6 4 4 4 3 5 5 3 5 6 7 6 7 7 8 6 3 3 6 5 5 4 4 6 6 8 9 7 12 17 17 19 18 17 19 20 21
8 11 12 7 5 5 3 2 4 5 3 4 3 2 2 3 3 2 3 5 4 4 6 6 4 9 9 8 12 4 2 5 2 6 14 13 4 2 3 3 2 4 3 1 2 1 2 4 4 4 4 6 6 3 1 3 5 6 3 4 5 6 8 8 5 4 3 3 4 5 3 4 6 4 5 6 7 9 11 17 21 19 20 20 18 20 20 20
9 12 12 6 3 6 5 1 3 3 1 2 1 3 3 2 2 1 2 6 4 3 5 6 4 9 9 8 10 4 3 7 5 7 14 14 7 2 4 4 2 3 1 2 3 1 2 6 7 6 5 6 6 5 2 3 4 5 3 1 7 9 9 6 2 0 2 4 5 4 3 2 5 5 5 7 9 13 17 20 21 19 19 20 19 19 19 18
9 11 11 6 1 7 6 1 3 2 1 1 3 4 4 3 2 1 5 5 3 2 1 4 5 7 8 9 10 6 1 6 3 6 14 15 9 3 4 2 2 1 2 5 2 2 1 4 5 4 5 5 3 5 3 3 0 7 5 5 8 7 5 2 1 1 1 3 5 4 2 1 6 6 6 12 14 16 18 18 18 18 19 19 18 18 18 18
7 8 9 6 3 6 6 1 0 0 0 2 2 1 2 1 1 3 6 3 2 2 1 2 6 7 9 9 8 5 3 4 3 6 14 14 12 8 4 0 3 1 4 5 4 4 2 1 1 3 3 2 5 6 3 5 3 7 7 6 3 2 2 2 3 2 2 3 3 5 2 2 5 6 9 11 12 14 13 11 12 13 14 15 15 17 18 17
6 6 5 4 2 5 6 2 2 2 0 1 1 2 1 1 4 6 5 1 1 3 1 3 4 4 8 8 6 6 5 3 2 6 7 7 12 11 4 1 4 5 5 4 3 3 2 1 2 3 1 2 4 6 3 6 5 6 6 5 5 4 3 3 2 2 3 2 5 6 0 2 2 4 8 7 5 7 9 9 11 13 14 14 13 14 16 15
6 5 2 0 2 6 5 2 3 2 0 1 1 1 2 3 5 7 3 1 1 3 4 4 4 4 8 6 4 6 5 5 5 6 6 5 9 10 5 4 4 5 6 6 6 6 5 2 1 1 2 0 3 6 2 2 3 4 5 4 6 6 4 4 4 4 3 5 6 5 3 2 2 1 5 4 3 5 7 10 13 15 15 14 13 13 13 12
7 5 3 3 3 5 5 3 3 1 0 1 1 3 4 5 5 3 1 4 2 2 3 3 4 5 6 4 3 5 4 5 5 5 3 3 5 6 6 5 3 5 7 5 6 8 4 2 3 4 2 1 2 5 5 4 4 6 5 5 6 5 5 5 5 3 1 6 5 4 3 1 2 3 1 3 5 6 7 8 10 13 14 14 13 12 11 10
7 4 2 4 5 6 7 5 4 1 1 1 2 5 7 6 3 1 3 3 1 2 1 1 4 5 5 5 5 6 3 3 5 5 2 2 4 4 4 4 3 4 3 2 4 6 5 5 5 5 2 0 2 3 5 5 5 6 3 3 3 3 5 6 5 3 5 7 5 4 2 3 1 3 1 2 5 6 6 7 8 10 13 14 13 12 12 12
7 5 3 6 9 10 9 6 3 2 3 3 5 7 9 6 1 1 3 3 1 3 2 1 6 5 3 3 4 5 3 3 5 6 4 4 5 5 5 6 7 4 1 2 2 3 5 6 5 3 2 2 2 1 0 3 4 3 2 3 2 2 1 4 4 3 7 9 7 2 1 4 2 3 4 2 2 4 6 7 7 9 11 11 11 12 13 14
8 9 10 12 15 15 10 6 1 6 6 6 8 8 7 2 3 1 2 4 2 4 4 2 5 5 4 4 3 4 2 3 5 5 5 5 3 3 3 4 5 4 3 3 1 1 3 5 7 3 2 1 2 2 1 1 3 2 2 2 2 2 3 2 4 5 4 6 6 3 2 4 3 6 3 1 4 9 12 12 13 15 16 13 11 13 14 14
8 11 16 20 21 17 11 5 4 9 7 7 9 6 2 3 2 2 1 2 2 3 5 5 5 5 5 5 4 6 3 2 4 5 4 2 1 1 1 1 3 3 3 2 1 1 2 6 9 6 4 1 3 3 1 2 2 2 1 1 2 3 5 1 4 2 1 4 5 2 4 4 1 3 7 13 15 18 18 18 19 19 21 19 14 14 15 15
8 9 13 22 24 17 9 5 7 8 5 8 9 3 2 2 1 1 0 2 0 0 3 4 3 3 4 4 4 8 6 3 4 5 3 2 0 0 1 1 0 2 1 2 2 1 2 5 8 4 5 6 4 2 2 2 1 1 2 4 3 1 3 2 2 4 3 5 5 3 8 7 1 2 8 15 17 19 17 18 19 19 21 19 15 15 16 16
3 3 8 21 24 14 7 6 6 7 7 9 7 3 1 1 2 0 0 1 0 2 5 3 1 1 1 2 4 7 6 5 6 5 2 3 2 2 2 1 0 1 1 1 1 1 2 3 8 2 4 9 3 3 4 4 1 1 3 3 2 2 3 2 1 3 5 7 6 5 9 6 1 3 8 12 15 18 18 18 19 20 20 17 16 15 15 15
5 2 4 18 21 10 7 8 8 8 9 7 4 2 1 1 1 1 1 1 1 3 5 2 1 2 1 1 2 5 4 2 4 4 2 2 3 1 3 1 1 1 3 1 2 1 1 1 6 5 4 7 5 4 5 6 5 3 3 3 2 2 4 2 2 1 2 8 8 5 7 4 2 2 4 7 12 17 18 17 17 18 17 15 15 14 13 13
4 3 2 18 20 4 9 19 15 9 8 5 3 1 1 0 1 2 2 2 1 2 2 0 0 2 2 1 1 2 2 1 1 2 1 1 3 2 2 1 1 3 3 2 3 1 1 1 4 6 4 4 4 2 4 5 4 4 4 4 5 3 1 2 2 2 1 6 6 5 8 5 2 2 2 6 10 13 14 15 14 15 16 15 15 15 14 13
4 4 3 21 19 2 5 19 14 5 5 4 1 2 2 1 0 3 4 3 1 1 1 3 2 1 0 2 2 1 2 2 1 1 1 1 2 2 3 2 1 3 3 4 3 2 1 1 2 6 6 5 6 5 1 0 1 2 3 4 5 3 2 4 5 2 1 3 4 7 10 5 2 1 2 4 7 10 12 14 13 13 15 16 16 16 15 14
6 4 7 20 15 8 10 10 4 3 5 3 2 2 1 1 2 2 3 2 1 0 1 3 2 1 2 1 2 1 2 2 2 1 2 2 3 2 3 3 2 1 2 2 2 2 0 2 1 6 5 6 12 7 3 4 7 9 6 5 4 2 4 2 6 5 4 7 7 7 8 4 2 3 1 4 9 14 16 16 15 14 16 16 16 16 15 14
4 2 9 19 7 8 13 8 2 6 4 1 0 1 2 2 1 2 2 2 2 1 2 2 0 0 1 1 1 1 2 2 2 2 2 3 3 2 2 2 1 2 3 1 2 1 1 2 2 6 6 6 9 4 5 5 6 9 7 6 5 2 0 4 5 3 4 6 5 5 6 4 3 4 3 9 15 18 17 17 18 17 15 16 16 16 14 15
3 3 7 20 10 5 7 6 3 4 2 0 3 3 4 2 2 3 2 3 2 1 2 1 1 1 0 1 1 1 2 1 1 2 1 2 2 1 2 2 3 3 3 0 1 2 2 0 2 4 7 8 8 7 5 3 3 6 4 5 5 3 4 2 2 2 2 4 10 7 7 6 4 2 7 13 17 19 17 17 17 16 15 15 15 14 14 15
4 1 4 18 23 14 6 4 6 5 2 2 4 4 4 2 2 1 0 1 1 2 1 1 1 1 1 0 1 2 2 1 2 3 3 2 3 2 4 4 4 3 1 2 2 2 1 1 2 3 3 7 8 8 9 8 5 3 3 5 6 7 9 5 2 3 3 9 13 7 7 12 12 8 11 15 18 19 20 19 16 16 17 17 15 15 14 14
4 4 3 9 15 12 4 1 5 6 4 3 4 3 3 2 1 2 2 1 1 1 1 2 1 2 2 4 4 3 3 1 2 3 3 4 4 2 3 3 3 3 2 4 4 2 2 0 2 5 4 5 6 8 10 7 4 3 4 7 6 5 7 6 3 3 7 10 10 8 11 18 17 12 11 15 18 19 19 19 18 17 17 18 17 16 16 15
3 3 2 2 4 5 5 5 5 4 3 4 3 2 2 2 3 2 1 1 1 0 1 2 3 3 3 4 5 3 5 4 2 2 3 4 4 2 2 3 4 4 4 3 3 3 3 2 3 6 8 8 8 12 11 5 5 3 5 8 7 6 6 7 5 5 9 9 8 12 18 21 17 13 12 15 18 17 17 18 18 17 17 17 17 18 19 18
3 3 1 1 2 2 3 4 4 5 5 4 3 1 3 4 3 1 2 3 2 1 1 2 5 5 2 2 3 2 5 6 4 3 2 3 4 4 4 3 2 4 4 2 3 3 3 3 3 4 7 9 9 13 8 4 6 4 7 8 9 7 6 6 6 8 9 9 11 17 23 22 16 11 13 17 18 17 17 18 17 17 17 17 18 19 20 19
4 4 1 3 4 3 1 2 3 6 7 5 3 3 3 3 3 1 2 3 4 3 3 3 6 6 2 1 1 1 3 3 5 5 2 3 4 4 4 3 1 3 4 3 3 1 3 3 4 2 6 8 7 9 3 6 5 4 7 8 10 10 10 9 8 10 12 13 16 20 23 20 11 10 14 18 17 15 15 16 16 18 19 18 19 20 19 17
3 4 1 3 5 2 2 3 3 5 5 4 4 2 1 2 1 2 1 1 3 4 4 3 6 6 2 2 2 2 4 3 5 6 2 3 5 1 1 2 2 5 7 4 3 2 2 5 4 2 7 8 4 2 2 7 7 5 6 10 14 15 15 13 10 10 12 15 17 20 20 14 7 10 15 17 16 15 16 19 19 19 20 20 20 21 18 16
6 6 6 7 4 4 3 3 3 4 4 4 2 1 1 0 1 1 1 2 1 1 2 2 5 5 2 0 3 7 7 5 7 9 5 4 4 1 0 1 0 5 7 3 3 4 4 4 5 5 6 9 7 10 8 3 8 5 6 12 15 14 14 13 11 12 14 18 20 18 13 8 7 11 15 17 17 18 20 22 19 18 21 22 21 19 17 16
8 5 5 7 4 3 3 3 3 4 2 2 1 1 1 1 1 1 1 1 0 1 2 2 1 2 3 4 6 6 6 5 6 5 3 1 0 1 1 0 2 0 2 1 2 2 2 2 5 4 4 9 10 13 13 4 2 0 3 7 11 14 16 16 14 14 15 16 15 12 7 8 13 16 17 19 19 20 20 20 17 18 22 23 19 16 16 18
Wind_Direction
311 336 348 1 46 53 41 1 346 342 349 345 346 344 341 339 338 338 337 342 343 349 359 359 346 325 313 301 314 340 356 16 32 36 39 14 1 1 356 347 345 349 350 349 355 359 357 2 359 359 4 21 18 348 8 22 67 52 89 135 260 210 211 197 195 206 192 266 272 286 234 202 267 280 264 341 225 251 271 255 257 263 257 247 248 268 304 206
317 5 79 100 102 76 35 347 348 353 357 349 349 344 341 342 342 346 345 345 347 359 9 2 356 338 308 305 327 358 358 23 46 37 22 9 7 3 355 351 350 351 354 355 1 9 10 346 339 1 21 21 351 359 8 345 67 93 126 188 244 207 218 200 198 214 201 260 269 280 257 204 237 256 24 290 273 300 288 267 254 261 265 260 255 252 235 180
167 131 138 127 115 83 15 345 358 359 354 344 344 342 344 349 353 357 352 348 1 18 16 11 15 17 7 348 0 1 354 29 47 15 5 11 8 2 357 354 353 354 357 358 0 4 3 327 317 11 42 14 330 3 27 348 325 154 139 255 246 215 241 237 214 221 224 251 284 290 284 216 241 244 106 256 286 296 258 257 237 242 252 253 251 232 200 181
146 135 137 120 102 81 358 1 2 349 343 339 341 346 350 356 1 4 1 8 28 28 19 20 28 38 44 35 19 352 4 41 24 333 0 12 8 4 359 355 357 355 354 354 357 2 7 5 1 55 61 357 319 8 69 315 321 168 154 209 233 195 265 260 218 226 236 217 257 289 332 295 261 216 212 237 301 287 255 245 228 233 243 245 251 222 191 185
139 130 130 117 113 68 6 0 348 338 339 342 346 349 352 357 359 1 9 28 36 25 22 24 30 40 45 36 21 352 20 52 320 330 5 11 10 5 356 357 357 347 349 349 346 2 17 35 53 51 50 351 335 18 233 269 81 199 215 213 223 165 266 269 218 231 232 183 271 296 311 284 272 216 219 215 242 260 259 240 215 230 240 241 248 220 191 191
136 134 140 140 124 7 356 343 335 335 338 344 349 348 350 350 346 351 12 30 32 27 24 25 26 30 29 27 25 14 63 105 302 340 5 9 12 4 360 359 351 342 343 344 346 13 23 22 38 45 42 18 333 339 257 311 49 260 276 292 259 193 241 272 233 238 208 202 268 264 282 288 316 294 231 209 227 242 259 256 213 234 243 250 259 217 196 205
147 152 152 157 20 349 338 332 330 333 338 345 344 341 344 341 340 349 25 36 38 30 26 30 22 7 349 352 22 36 76 146 313 351 359 9 13 4 12 13 3 350 337 351 5 25 50 30 28 111 78 14 289 239 275 315 20 182 265 307 289 207 231 263 280 273 213 229 247 243 314 293 272 284 309 239 245 249 263 275 265 257 259 265 267 229 219 217
156 157 160 175 352 337 330 330 331 334 338 341 336 338 347 352 4 60 78 59 44 30 30 31 15 2 353 5 87 44 45 314 336 359 356 5 10 6 13 15 15 8 1 18 17 29 80 45 29 148 67 342 214 175 338 335 5 147 230 281 296 256 260 282 295 284 256 243 254 287 284 260 243 258 313 265 263 267 271 280 275 273 278 265 246 238 231 229
155 163 178 356 337 332 332 332 333 335 339 342 343 347 2 18 49 84 79 58 39 32 32 25 11 9 15 63 93 57 332 321 350 359 356 358 0 2 6 9 11 11 24 34 26 61 91 74 201 155 141 251 186 268 352 359 330 212 227 272 289 297 296 312 304 285 276 257 271 286 266 261 252 266 279 260 262 283 299 296 287 286 285 269 252 244 229 229
162 176 99 350 341 340 336 333 335 338 345 350 350 356 18 39 60 69 57 44 34 30 24 18 17 25 32 45 73 55 324 338 357 356 353 346 347 349 352 1 2 7 25 35 35 61 89 197 194 149 141 114 108 294 349 67 251 218 254 270 273 296 295 312 306 298 305 273 218 256 269 274 279 329 275 263 259 321 328 309 303 298 281 275 266 256 235 225
173 141 11 349 351 342 335 338 343 351 357 359 358 1 17 37 48 43 34 30 23 23 17 16 22 37 50 58 78 59 335 349 355 354 353 340 339 339 332 343 349 1 17 32 43 44 26 215 160 114 119 59 260 329 253 221 220 217 296 296 297 327 310 331 341 326 342 305 218 240 271 292 8 176 242 270 293 346 327 308 307 304 286 280 273 267 250 230
161 27 5 357 349 339 342 353 356 7 6 1 357 354 9 29 34 22 24 26 16 19 13 11 14 18 48 56 78 32 342 350 355 358 360 346 334 330 323 331 344 358 6 29 38 37 35 49 108 92 195 246 287 358 214 223 234 200 47 344 318 359 357 355 2 331 358 323 288 283 299 332 96 227 251 278 302 324 322 308 306 303 292 285 277 274 262 247
135 18 10 354 345 345 356 7 15 17 5 1 1 8 35 59 65 54 40 31 22 17 5 4 4 357 50 49 1 0 348 347 358 1 360 351 337 324 323 332 348 357 354 21 11 34 43 48 95 106 138 91 304 312 79 16 4 283 37 37 332 2 338 348 6 325 0 311 313 9 325 314 283 269 275 282 315 332 324 312 311 308 302 294 282 279 272 262
83 22 3 349 349 357 9 26 25 11 10 26 44 61 67 75 84 98 99 49 28 11 359 2 4 8 68 24 267 351 351 347 356 352 354 352 347 350 359 352 2 12 357 3 1 27 29 47 85 92 99 80 294 3 31 3 13 338 355 37 31 11 293 324 347 339 17 331 348 43 259 285 296 300 300 278 9 345 318 311 314 312 311 309 298 288 282 275
114 35 3 355 0 21 36 43 32 32 51 62 72 74 61 62 79 105 115 53 23 6 354 358 7 36 76 6 292 344 345 346 350 350 353 349 347 352 349 352 12 63 11 339 339 42 37 65 76 55 317 358 37 44 17 344 14 22 7 340 349 8 288 316 325 24 26 300 0 52 245 280 288 294 301 313 2 348 312 305 309 313 316 317 314 306 294 291
142 36 4 10 35 60 62 55 51 62 72 70 73 67 52 56 72 105 114 108 26 3 358 360 356 53 94 337 327 348 345 341 346 351 352 348 347 339 336 345 0 15 12 22 105 89 50 62 73 56 2 11 40 58 37 8 356 5 38 298 287 321 319 318 306 45 29 306 348 40 235 285 285 290 307 319 339 345 321 308 308 313 317 323 325 322 315 309
141 48 21 54 78 88 82 69 72 78 79 84 84 73 64 56 46 168 217 259 337 350 10 19 351 48 84 349 336 344 333 334 347 353 356 358 5 1 353 353 0 0 24 51 65 72 33 42 68 48 41 34 34 70 57 14 324 326 21 315 271 276 299 317 307 334 28 26 329 333 229 260 274 289 305 309 330 343 324 316 317 317 323 330 332 331 334 329
145 87 74 98 111 105 96 82 82 91 101 98 80 68 70 65 63 71 38 301 270 314 2 4 5 69 18 345 341 319 317 326 350 358 3 10 14 16 18 15 359 9 32 41 29 25 14 22 57 45 29 25 19 52 72 307 260 274 307 309 302 288 239 277 284 316 18 15 296 305 277 270 281 293 298 299 329 344 316 316 321 325 339 339 345 347 344 346
141 111 113 127 127 114 102 86 83 96 112 87 27 32 68 67 64 61 49 44 32 9 23 333 14 101 268 315 316 318 316 310 352 5 7 8 357 15 32 29 26 39 54 32 3 18 24 26 42 36 360 342 344 74 159 221 205 217 243 211 259 286 269 261 261 293 5 345 291 280 280 286 296 300 300 305 328 335 314 328 333 334 349 345 350 354 351 0
142 127 138 138 127 120 98 83 79 66 34 353 336 3 34 39 42 41 31 39 69 89 97 235 22 101 289 301 316 334 332 286 356 14 8 0 345 356 17 18 29 43 55 86 328 9 63 60 38 313 280 283 272 232 220 251 211 202 236 226 241 266 279 279 270 290 358 348 279 264 302 292 288 289 290 304 328 339 334 341 338 336 344 337 345 352 352 352
145 137 147 139 126 115 86 70 44 35 32 39 60 59 75 137 71 73 342 25 42 35 61 214 246 6 293 286 319 341 343 265 348 15 8 0 358 18 358 12 37 33 15 296 300 356 58 68 344 255 242 259 277 254 241 264 241 201 249 269 280 257 267 290 298 299 5 11 281 337 350 299 289 291 295 318 338 338 342 339 328 327 327 323 341 348 339 325
139 138 144 134 120 98 66 48 40 54 63 67 78 88 136 150 110 153 149 80 15 6 33 359 25 4 297 278 335 342 358 356 349 1 3 3 17 30 0 32 51 20 342 2 16 5 36 49 283 272 255 286 343 51 35 305 272 320 343 316 314 296 283 303 337 10 358 10 283 326 341 295 291 294 295 312 324 315 324 321 310 313 316 325 338 337 334 335
132 137 140 130 113 83 54 55 59 79 76 71 82 99 119 100 107 155 89 96 39 350 10 13 50 9 340 359 350 350 40 35 349 342 358 7 20 38 55 46 46 14 357 26 92 73 42 316 299 335 22 358 347 31 38 3 357 312 293 345 313 317 342 310 321 346 331 284 254 304 305 285 301 319 303 286 285 309 327 328 325 327 312 313 324 328 331 334
130 135 137 129 109 79 68 77 94 96 77 73 81 92 104 76 93 142 94 80 25 349 350 357 115 28 6 356 348 354 71 47 358 338 357 13 9 18 75 66 56 28 354 29 85 100 189 284 359 42 33 33 351 358 29 16 352 301 226 226 291 303 276 249 286 327 328 297 253 325 325 299 333 352 317 305 336 342 356 1 355 357 349 338 345 353 352 349
128 141 143 130 101 78 78 84 106 112 81 68 80 86 96 71 48 150 121 57 11 332 343 355 35 17 352 343 352 358 128 19 72 346 355 12 0 5 49 59 79 23 318 356 53 63 315 301 4 22 18 37 34 5 23 36 354 321 243 218 257 291 278 267 299 328 353 356 337 21 8 298 324 347 302 312 345 342 4 21 10 5 9 10 11 11 7 2
138 155 154 133 90 61 53 72 105 117 66 37 87 102 112 62 30 148 130 60 27 326 349 358 0 0 349 343 346 353 77 354 323 5 8 11 357 126 56 350 46 16 291 196 40 61 333 338 39 60 43 29 31 17 328 90 32 330 254 208 254 300 299 301 329 348 7 307 305 53 100 265 318 336 299 316 345 351 11 24 19 14 17 18 17 15 11 5
153 167 168 153 90 25 10 118 139 135 40 1 248 276 263 285 1 129 98 44 19 319 349 341 337 359 352 337 340 29 78 317 312 22 15 6 347 123 69 9 16 5 321 87 37 62 314 346 21 44 44 30 21 356 282 127 46 296 237 353 309 308 302 298 336 150 245 286 314 28 112 228 302 295 315 355 10 16 22 23 18 15 16 16 16 12 8 5
160 176 180 183 252 358 2 120 149 135 84 325 291 286 256 261 303 108 85 63 347 330 5 314 328 352 343 340 3 62 106 317 10 1 351 9 8 20 61 47 139 327 348 93 72 297 312 348 355 9 23 23 352 318 272 149 107 267 264 317 302 296 288 247 148 184 262 340 324 329 41 281 284 288 354 21 24 16 19 21 15 12 12 12 11 6 4 5
154 175 189 209 255 350 1 35 95 27 339 304 314 274 211 265 351 60 74 94 315 335 179 324 343 341 345 353 9 39 2 359 63 324 341 17 12 17 76 148 131 94 342 94 135 274 295 251 206 102 51 329 290 290 235 164 231 277 297 312 310 35 49 91 100 108 34 21 284 282 357 14 300 331 14 24 23 8 3 14 15 12 11 10 8 3 3 4
142 162 186 220 262 342 345 2 26 25 96 350 115 139 162 20 54 58 47 78 326 322 285 16 359 336 4 7 347 0 16 358 339 333 352 17 357 10 88 159 92 90 345 36 87 284 315 321 173 130 163 245 298 301 223 182 244 313 346 335 344 21 41 50 70 82 43 341 256 252 185 80 312 7 42 30 5 347 347 1 7 7 9 8 7 4 1 2
129 132 136 302 332 339 330 332 6 1 95 61 133 130 47 25 61 84 71 283 307 335 355 6 338 0 26 30 341 344 4 336 336 13 10 360 359 7 31 20 36 48 5 5 2 342 0 18 268 277 265 152 355 327 317 209 276 348 8 351 344 341 6 15 356 31 32 288 266 241 197 132 246 305 49 38 353 343 355 6 3 0 2 1 1 1 358 356
110 97 75 22 350 349 344 309 310 323 350 40 106 84 68 37 32 86 286 318 340 341 359 321 313 358 8 12 344 322 336 337 349 49 34 12 33 21 31 35 348 3 11 359 346 348 347 275 294 329 328 44 8 337 340 346 358 5 5 25 15 345 356 355 332 358 290 266 252 209 239 285 175 174 52 26 16 360 1 9 0 356 356 355 353 352 351 351
100 88 50 17 9 0 353 324 293 275 245 178 88 58 73 75 43 257 279 329 16 318 322 269 308 340 348 359 351 324 336 343 348 31 57 75 60 27 25 34 25 24 4 345 356 351 331 303 332 3 344 10 64 19 352 331 344 355 7 56 39 14 359 328 309 322 297 280 255 192 232 288 166 146 168 17 13 358 3 5 357 356 354 348 346 345 347 350
95 77 40 18 13 2 356 344 303 204 164 110 78 54 66 84 193 243 289 277 272 334 1 358 326 339 23 24 342 336 5 338 347 16 8 24 39 10 358 3 21 57 83 32 24 2 355 324 331 15 334 335 26 60 291 275 311 318 189 136 82 97 15 292 268 282 301 300 295 282 214 253 231 155 171 196 323 355 11 7 358 359 355 345 340 344 347 349
96 65 40 23 13 5 360 352 285 170 151 88 66 61 77 121 240 195 255 269 302 338 327 349 3 11 7 340 326 3 30 310 344 27 23 29 44 3 358 342 356 42 73 35 315 10 27 287 276 310 303 299 327 286 163 351 326 284 181 87 26 184 177 241 231 225 272 297 298 301 246 242 166 138 122 358 351 8 10 5 2 358 355 350 346 351 352 348
87 56 37 24 15 7 2 3 143 153 141 83 68 56 109 189 215 145 219 310 27 331 324 354 26 29 348 322 333 357 3 283 342 19 22 49 137 302 358 272 326 27 76 94 272 2 49 283 289 330 332 244 205 251 305 5 316 310 1 322 263 180 149 192 276 282 15 277 277 289 280 295 143 128 24 13 5 6 4 360 359 354 352 352 350 353 350 345
79 62 41 22 11 5 17 62 128 136 105 76 79 82 203 188 113 117 280 10 64 299 38 31 15 26 351 319 325 336 341 339 1 12 4 18 50 284 41 236 275 42 132 164 240 258 148 284 298 327 316 281 211 203 310 329 135 74 314 271 261 88 102 115 287 339 357 271 270 302 285 293 264 268 1 16 6 359 356 353 352 349 351 350 345 347 343 340
40 67 48 18 5 2 30 71 111 106 82 69 75 119 158 30 19 31 112 94 135 28 59 60 358 55 34 332 312 319 342 358 358 4 353 345 339 143 107 347 105 66 307 203 213 272 139 294 295 268 273 290 308 60 340 325 2 167 259 275 29 16 319 1 337 317 317 281 279 289 280 281 182 268 343 9 4 355 348 347 347 344 347 344 339 339 335 333
354 42 42 4 359 6 45 72 91 72 67 74 76 108 104 27 8 327 310 108 115 72 62 43 324 28 45 52 298 304 342 1 338 352 19 1 335 130 110 27 300 8 316 172 147 252 92 6 291 277 274 302 343 26 341 321 328 343 324 321 13 177 226 281 293 231 280 281 284 289 284 286 168 229 328 2 360 353 345 343 343 339 338 335 331 331 326 325
3 76 21 353 355 5 64 64 68 51 57 97 150 113 57 36 319 324 338 9 81 98 74 197 3 11 346 356 315 288 339 343 295 327 347 350 322 330 65 83 305 328 332 47 95 300 9 88 271 288 313 343 342 315 312 316 316 335 349 352 348 332 243 291 283 151 235 279 289 296 287 281 188 194 12 7 352 348 340 335 335 332 332 330 328 329 325 321
35 81 325 346 354 279 66 53 53 42 68 80 100 85 53 158 107 339 335 353 16 135 135 146 116 62 247 340 338 258 302 315 276 275 279 310 314 332 12 74 135 332 353 34 41 359 353 132 253 299 332 343 296 262 244 194 117 23 6 19 1 341 27 338 300 309 5 290 291 295 292 288 173 168 36 8 335 336 338 334 330 329 331 330 327 326 322 318
52 82 319 343 10 89 79 53 31 47 83 56 35 93 17 75 84 349 331 1 31 49 65 104 102 115 176 247 291 246 302 297 269 290 258 241 226 248 336 34 92 24 31 34 327 281 118 104 279 285 279 277 278 286 70 110 108 81 60 35 16 28 68 7 286 306 321 294 293 295 296 298 189 212 307 358 343 342 342 339 336 333 331 330 325 320 316 316
69 126 348 353 6 100 71 62 353 28 67 184 64 71 355 62 70 351 2 19 13 19 28 46 135 36 168 230 257 248 306 253 226 287 275 252 254 254 308 16 29 14 56 48 304 315 57 76 1 297 285 275 276 298 71 105 108 84 51 28 48 61 291 215 235 306 298 293 322 307 288 294 206 218 315 357 349 341 339 340 338 333 327 324 321 317 314 317
108 178 4 16 35 115 77 87 116 57 71 206 50 20 351 47 68 12 10 3 359 80 53 1 261 353 276 183 135 246 316 335 254 299 309 251 262 327 31 2 347 17 56 52 313 353 332 346 39 346 331 332 329 340 357 348 58 84 56 30 55 28 334 259 235 330 267 324 341 313 276 295 286 296 350 351 342 336 337 338 332 322 319 319 317 314 311 311
65 88 328 20 44 69 88 136 136 115 129 89 58 20 355 37 67 16 151 7 341 175 117 329 284 22 320 31 36 314 332 7 271 319 359 282 270 8 31 358 355 34 37 344 359 346 277 229 99 76 351 324 326 325 317 321 357 67 64 20 23 21 15 11 333 335 323 324 323 296 273 298 305 328 349 342 335 334 334 331 323 319 321 320 317 314 310 308
69 51 322 1 32 54 71 106 100 105 136 112 66 15 24 56 317 258 165 103 313 202 47 348 341 30 17 28 23 329 305 298 285 325 329 285 281 335 30 12 22 38 5 6 18 38 96 237 206 163 189 260 272 279 295 328 10 7 359 1 5 16 16 19 21 344 319 309 300 284 291 300 306 326 341 334 332 332 330 326 322 321 320 318 316 311 308 306
96 75 49 355 8 31 40 23 39 74 126 118 94 17 14 1 314 300 162 217 279 64 39 21 37 35 5 21 30 320 304 331 341 309 272 270 281 297 26 57 43 6 347 354 3 47 74 315 259 190 215 246 263 278 296 12 69 46 17 4 350 350 5 21 18 320 307 305 297 298 301 301 307 323 332 331 331 329 324 319 316 316 313 311 309 305 304 305
73 126 188 106 60 45 40 25 45 66 62 75 104 79 16 10 8 358 299 319 1 25 23 20 22 31 17 10 34 324 320 340 333 304 296 321 326 337 355 25 26 341 340 351 349 60 103 276 259 198 239 255 260 273 289 78 105 85 47 13 350 346 347 352 329 302 305 300 291 298 302 302 307 323 330 329 327 322 314 309 308 309 307 305 307 306 305 305
80 109 327 21 87 122 77 23 59 64 51 55 77 61 54 54 28 304 273 350 353 350 38 21 344 355 359 219 113 334 321 340 316 300 302 341 340 353 344 326 307 337 4 22 343 85 123 277 264 234 286 283 262 262 236 131 135 89 50 16 2 353 340 337 318 303 306 297 289 297 301 299 306 330 329 322 317 310 304 304 308 309 307 307 308 307 304 304
130 136 124 58 72 73 29 26 50 61 42 44 64 51 78 115 352 305 252 72 354 343 25 17 322 331 337 173 169 264 260 215 257 268 243 334 326 335 302 287 298 342 4 26 331 346 32 314 305 1 324 310 302 323 91 138 143 102 48 16 8 357 344 339 325 315 312 302 298 300 298 294 313 331 320 312 311 310 308 311 316 314 310 311 310 307 306 308
103 126 133 109 63 6 10 17 52 75 37 15 62 96 356 185 226 295 266 183 157 337 354 341 314 323 357 112 242 263 260 225 234 249 244 271 287 252 210 257 59 345 352 15 334 353 24 326 326 15 340 313 329 350 352 113 140 114 45 20 8 354 341 330 324 325 317 307 306 304 296 297 317 318 313 311 313 314 311 313 315 312 309 309 307 306 307 311
99 98 111 103 73 2 9 6 27 73 66 349 48 140 324 304 243 39 357 255 176 233 210 175 238 329 354 329 302 288 277 254 244 258 269 268 328 50 332 141 112 38 311 22 327 335 64 356 326 358 332 311 330 344 335 324 144 85 38 34 9 350 337 326 322 320 310 304 308 305 296 312 319 320 320 317 317 315 310 310 311 308 307 306 303 306 310 311